Vertical_Velocity
1 1 2 2 2 1 1 0 1 2 2 2 3 3 2 1 3 5 7 8 5 1 -1 -1 0 0 -0 0 1 1 2 2 1 -0 -1 -1 -1 -1 -1 -1 -0 -0 -1 -1 -1 -2 -2 -2 -1 -2 -2 -2 -2 -3 -3 -2 -2 -2 -2 -2 -1 -1 -2 -2 -3 -3 -3 -4 -3
1 1 2 2 2 1 0 0 1 2 1 1 3 3 4 4 5 4 3 1 -1 -1 0 2 2 1 0 1 1 2 2 1 0 -0 -1 -1 -1 -1 -1 -0 -0 -0 -1 -1 -2 -2 -2 -2 -1 -2 -2 -3 -2 -2 -2 -2 -1 -2 -2 -2 -2 -1 -1 -2 -2 -3 -3 -3 -4
1 2 2 2 0 -1 -0 1 1 1 1 0 2 3 5 6 3 0 -2 -2 -1 1 3 3 2 1 1 2 2 2 1 1 0 -0 -1 -1 -1 -1 -1 -0 -0 -1 -1 -1 -2 -2 -2 -2 -1 -2 -2 -3 -3 -3 -2 -2 -1 -1 -1 -3 -3 -2 -2 -2 -2 -2 -3 -3 -3
2 2 1 1 -0 0 1 2 2 2 1 0 3 5 5 3 -1 -3 -2 -1 2 4 4 2 1 1 2 2 2 1 1 0 -0 -0 -1 -1 -1 -1 -1 -0 -1 -1 -1 -2 -2 -2 -2 -2 -2 -2 -2 -3 -3 -3 -3 -2 -2 -1 -1 -2 -2 -3 -3 -3 -3 -2 -2 -3 -3
2 2 2 1 2 2 2 2 2 2 1 2 5 5 4 -1 -3 -3 -1 2 4 4 2 1 1 2 2 2 1 1 0 -0 -0 -0 -0 -0 -0 -0 -0 -1 -1 -1 -2 -2 -2 -2 -2 -2 -2 -2 -3 -3 -3 -3 -3 -2 -2 -2 -2 -2 -1 -1 -2 -3 -3 -3 -2 -3 -3
2 2 2 2 2 2 1 -0 -0 1 2 4 4 3 0 -2 -1 0 3 5 3 1 1 1 2 2 2 1 1 0 0 -0 -0 -0 -0 -0 -0 -0 -1 -1 -1 -2 -2 -2 -2 -2 -2 -2 -2 -3 -3 -3 -3 -3 -3 -2 -3 -3 -3 -3 -1 -1 -1 -1 -2 -2 -2 -3 -3
3 3 2 2 2 1 -0 -2 -0 3 4 3 2 -0 -1 -0 3 5 6 4 1 0 1 2 2 2 1 1 0 0 0 0 0 -0 -0 -0 -0 -1 -1 -1 -1 -2 -2 -2 -2 -2 -2 -2 -2 -3 -3 -2 -2 -2 -3 -3 -3 -4 -4 -3 -3 -1 -0 -1 -1 -2 -2 -2 -2
4 3 3 2 2 1 -0 -1 3 4 3 -1 -2 -1 1 4 7 7 5 2 1 1 1 1 1 1 1 1 0 0 -0 0 0 -0 -0 -0 -0 -1 -1 -1 -1 -2 -2 -2 -2 -2 -2 -2 -2 -2 -2 -2 -1 -2 -2 -2 -3 -3 -3 -3 -3 -3 -2 -1 -1 -1 -1 -1 -1
2 2 2 2 2 1 0 1 3 2 -1 -3 -2 -0 3 7 7 5 3 2 2 1 1 1 1 1 1 0 0 -0 -0 -0 -0 -0 -0 -0 -0 -1 -1 -1 -1 -2 -2 -2 -1 -1 -2 -2 -2 -2 -2 -1 -1 -2 -2 -2 -3 -3 -3 -2 -3 -3 -3 -2 -2 -1 -1 -1 -1
2 1 1 1 1 1 1 1 -0 -2 -3 -2 -0 2 4 5 4 3 2 2 2 1 1 -0 0 0 0 0 -0 -0 -0 -0 -0 -0 -1 -0 -0 -1 -1 -1 -1 -2 -2 -2 -1 -1 -2 -2 -2 -2 -2 -1 -1 -2 -2 -3 -2 -2 -2 -2 -2 -2 -3 -3 -2 -2 -2 -2 -1
2 2 2 1 1 1 1 -1 -3 -2 0 3 4 3 2 1 1 1 2 1 1 0 -0 -0 0 0 0 -0 -0 -0 -0 -0 -0 -0 -0 -1 -1 -1 -1 -1 -1 -1 -2 -2 -2 -1 -2 -2 -2 -2 -2 -2 -1 -1 -2 -2 -2 -2 -2 -2 -1 -1 -2 -2 -2 -2 -2 -2 -2
3 2 2 1 1 1 0 -2 -2 2 6 7 2 -0 -1 -0 1 1 1 0 -0 -0 -0 0 0 0 -0 -0 -0 -0 -0 -0 -0 -0 -0 -0 -0 -0 -0 -1 -1 -1 -1 -2 -1 -1 -2 -2 -2 -2 -2 -2 -2 -1 -1 -2 -2 -2 -2 -2 -1 -1 -1 -2 -2 -2 -2 -2 -1
2 2 1 1 1 0 -1 -2 1 4 6 3 -1 -1 -1 1 1 1 0 -0 -0 -0 0 1 0 -0 -0 -1 -0 -0 -0 -0 -0 0 0 -0 -0 -0 -0 -1 -1 -1 -1 -1 -1 -1 -1 -2 -1 -1 -2 -3 -2 -2 -2 -2 -2 -2 -2 -2 -2 -2 -2 -2 -2 -2 -2 -2 -2
1 1 1 0 0 -1 -1 0 3 3 2 -1 -1 -1 0 1 1 0 0 0 1 1 1 1 0 -0 -1 -1 -0 -0 -0 -0 0 0 0 0 0 0 -0 -1 -1 -1 -1 -1 -1 -1 -1 -2 -1 -1 -2 -2 -3 -3 -3 -2 -2 -1 -1 -1 -2 -2 -2 -2 -2 -2 -2 -2 -2
1 1 0 -0 -1 -0 1 3 2 1 -0 -1 -0 1 1 1 0 1 1 1 1 1 1 1 0 -0 -1 -0 -0 -0 -0 0 0 0 0 0 0 0 0 -1 -1 -1 -1 -1 -1 -1 -1 -1 -1 -2 -2 -3 -3 -3 -3 -2 -2 -1 -1 -1 -1 -1 -2 -2 -2 -2 -2 -2 -2
0 0 -0 -1 -0 2 3 3 1 0 0 1 1 1 1 1 1 2 2 2 1 1 1 1 -0 -0 -0 -0 -0 -0 0 0 0 1 1 1 0 0 -0 -1 -1 -1 -1 -1 -1 -1 -1 -1 -1 -1 -2 -3 -3 -3 -3 -2 -2 -1 -1 -1 -1 -1 -1 -1 -1 -1 -2 -2 -2
-0 -0 -1 -1 2 3 3 1 1 1 1 1 1 2 2 2 2 3 2 2 2 1 1 0 -0 0 0 -0 -0 0 0 0 1 1 1 1 0 -0 -1 -1 -1 -1 -1 -1 -1 -1 -1 -1 -1 -1 -2 -2 -2 -2 -2 -2 -2 -2 -1 -1 -1 -1 -1 -1 -1 -1 -1 -2 -2
-0 -1 -1 1 3 3 2 1 2 2 2 2 2 2 2 3 3 3 2 2 2 1 0 -0 0 0 0 0 0 1 1 1 1 1 1 1 0 -0 -1 -1 -1 -1 -1 -1 -1 -1 -1 -1 -2 -2 -2 -2 -1 -1 -1 -1 -1 -1 -1 -1 -1 -1 -1 -1 -1 -1 -1 -1 -2
-1 -1 1 4 3 2 2 2 2 2 2 2 3 3 3 4 3 3 2 2 1 0 0 -0 0 0 1 1 1 1 1 2 1 1 0 0 -0 -1 -1 -1 -1 -1 -1 -1 -1 -1 -2 -2 -2 -2 -2 -1 -1 -0 -0 -0 -0 -1 -1 -1 -1 -1 -1 -1 -1 -1 -1 -1 -1
-1 1 2 4 3 3 3 3 3 2 3 3 3 4 4 4 3 3 2 1 0 -0 -1 -1 -0 1 1 1 2 2 2 2 1 1 0 -0 -0 -1 -1 -1 -1 -1 -1 -1 -1 -2 -2 -2 -2 -2 -1 -1 -1 -0 -0 0 0 -0 -1 -1 -1 -1 -1 -1 -1 -1 -1 -1 -1
0 2 3 4 4 4 3 2 2 2 2 3 3 3 3 3 3 2 1 -1 -1 -1 -1 -0 1 1 2 2 2 2 1 1 2 1 -0 -1 -1 -1 -1 -1 -1 -1 -1 -1 -2 -2 -2 -2 -2 -2 -1 -1 -0 0 0 1 1 1 0 -0 -1 -1 -1 -1 -1 -1 -1 -1 -1
1 3 4 4 4 3 2 2 2 2 2 3 3 3 2 2 2 0 -1 -2 -2 -1 0 1 2 2 2 2 2 2 1 1 1 1 -0 -1 -1 -1 -1 -1 -1 -1 -2 -2 -2 -2 -1 -2 -1 -1 -1 -1 -1 -0 0 0 1 1 0 0 -0 -1 -1 -1 -2 -2 -2 -2 -2
3 4 4 4 3 3 2 2 2 2 2 3 2 2 1 1 -1 -2 -3 -2 -1 1 2 2 2 2 2 2 2 2 1 1 0 -0 -0 -1 -1 -1 -1 -1 -1 -1 -2 -2 -1 -1 -1 -2 -2 -1 -1 -1 -1 -1 -1 -1 -1 -1 -1 -0 -0 -1 -1 -1 -1 -1 -1 -2 -1
5 5 4 3 3 3 2 2 3 3 3 3 2 1 -1 -2 -3 -3 -2 0 1 2 2 2 2 2 2 2 2 1 1 0 -0 -1 -1 -1 -1 -1 -1 -2 -1 -2 -2 -1 -1 -1 -1 -1 -1 -2 -2 -1 -1 -2 -2 -2 -2 -2 -2 -1 -1 -1 -1 -1 -1 -1 -1 -1 -1
5 4 4 4 3 3 3 3 3 3 3 2 0 -1 -3 -4 -3 -1 1 2 2 3 3 3 2 2 2 1 1 1 1 0 -0 -1 -1 -2 -2 -1 -2 -2 -2 -2 -1 -1 -1 -1 -1 -1 -1 -1 -1 -1 -1 -2 -2 -2 -2 -2 -2 -2 -1 -1 -1 -1 -0 -0 -0 -0 -1
4 4 4 4 3 3 3 3 3 2 1 -1 -2 -3 -3 -2 -1 1 2 3 3 3 3 2 2 1 1 1 1 0 -0 -0 -1 -1 -1 -2 -2 -2 -2 -2 -1 -1 -1 -1 -1 -1 -1 -1 -0 -0 -0 -1 -1 -1 -1 -1 -1 -1 -1 -1 -1 -1 -0 -0 -0 0 0 -0 -1
5 4 4 3 3 3 3 3 2 0 -2 -3 -4 -3 -2 -0 1 2 3 3 2 2 2 2 1 1 1 1 0 -0 -1 -1 -1 -1 -1 -2 -2 -3 -3 -1 -0 -0 -0 -1 -1 -1 -1 -1 -0 -0 -0 -0 -0 -0 -1 -1 -1 -1 -1 -0 -0 -0 -0 -0 0 0 -0 -1 -1
4 4 3 3 3 3 3 2 0 -2 -4 -4 -3 -2 -0 2 2 2 2 2 2 2 1 1 1 1 1 1 -0 -0 -1 -1 -1 -1 -1 -2 -2 -2 -1 -1 -0 -0 -1 -1 -1 -1 -1 -1 -1 -1 -1 -1 -1 -0 -0 -0 -1 -1 -1 -1 -0 -0 -0 -0 -0 -0 -0 -1 -1
4 3 3 2 3 3 2 1 -2 -3 -4 -3 -1 0 1 2 2 2 2 2 1 1 1 0 1 1 1 -0 -1 -1 -1 -1 -1 -1 -2 -2 -2 -1 -1 -0 -0 -1 -1 -2 -1 -1 -1 -1 -1 -1 -1 -1 -1 -1 -1 -1 -1 -1 -1 -1 -1 -1 -1 -1 -1 -1 -1 -1 -1
4 3 3 3 3 2 0 -1 -3 -3 -2 -0 1 2 2 2 2 2 1 1 1 1 1 1 1 0 -0 -1 -1 -1 -1 -1 -1 -1 -1 -1 -1 -1 -1 -0 -1 -2 -2 -2 -1 -1 -1 -1 -1 -1 -1 -1 -1 -1 -1 -1 -1 -0 -0 -0 -1 -1 -1 -1 -0 -0 -0 -0 -0
4 3 3 3 2 0 -1 -3 -2 -1 0 1 2 2 2 2 2 1 1 1 0 0 1 1 0 -1 -1 -0 -0 -0 -1 -1 -1 -1 -0 0 -0 -0 -1 -1 -2 -2 -2 -1 -1 -1 -1 -1 -1 -1 -1 -1 -1 -1 -1 -1 -1 -0 -0 -0 -0 -0 -1 -1 -0 0 1 0 -0
4 3 2 1 0 -1 -2 -2 -1 0 1 2 2 2 2 2 1 1 1 0 0 0 -0 -0 -0 -1 -1 -0 -0 -0 -1 -1 -1 -0 0 1 0 -1 -2 -2 -2 -1 -1 -1 -1 -1 -1 -1 -1 -1 -0 -0 -1 -1 -1 -1 -1 -0 -0 -0 -0 -0 -0 -1 -0 -0 0 0 -0
3 1 0 -1 -1 -1 -1 -1 1 2 2 3 3 2 2 1 1 0 0 -0 -0 -0 -1 -1 -0 -0 -0 -1 -1 -1 -1 0 1 1 0 0 -1 -2 -3 -3 -1 -0 -0 -1 -2 -1 -1 -1 -1 -0 -0 -0 -0 -0 -0 -0 -0 -0 -0 -0 -0 -0 -0 -0 -0 -0 -0 -0 -1
-0 -1 -0 0 0 0 1 2 2 2 3 2 2 2 1 1 0 -0 -1 -1 -1 -1 -1 -0 -0 -0 -0 -0 -0 -0 -0 0 1 1 0 -1 -2 -3 -3 -2 -1 0 -0 -1 -2 -2 -1 -1 -0 -0 -0 -0 -0 0 0 -0 -0 -0 -0 -0 -0 -1 -1 -0 -0 -0 -0 -0 -1
-1 0 1 2 2 3 3 3 3 3 2 2 1 1 0 -0 -1 -1 -1 -1 -0 -0 -1 -1 -0 -0 -0 -1 0 1 1 1 1 0 -1 -2 -3 -3 -2 -2 -0 1 1 -0 -1 -2 -1 -1 -0 0 0 0 0 0 0 0 -0 -0 -0 -1 -1 -1 -1 -1 -0 -0 -0 -0 -1
2 3 4 4 4 4 4 4 3 2 2 1 0 -0 -0 -1 -1 -1 -1 -0 -0 -0 -1 -1 -0 0 0 0 1 1 2 1 0 -1 -2 -3 -2 -2 -2 -2 -1 0 1 1 -0 -1 -1 -0 -0 0 0 0 0 0 0 0 -0 -0 -0 -0 -0 -0 -1 -1 -1 -1 -1 -1 -1
5 5 6 6 5 4 4 3 2 1 1 0 -0 -0 -1 -1 -1 -1 -1 -0 -0 -0 -1 -0 0 1 1 1 1 1 1 1 -1 -2 -2 -2 -1 -1 -1 -2 -2 -0 1 2 1 -0 -1 -1 -0 -0 0 0 0 -0 -0 -0 -0 -0 -0 0 0 -0 -1 -1 -1 -1 -1 -1 -1
5 5 5 5 4 3 2 2 1 1 -0 -1 -1 -1 -1 -1 -1 -1 -0 0 0 -0 -0 0 1 1 1 2 2 1 -1 -1 -2 -2 -1 -1 0 -0 -1 -2 -2 -1 0 2 1 0 -1 -1 -0 -0 0 0 -0 -0 -0 -0 -1 -1 -0 0 0 0 -1 -1 -1 -1 -1 -2 -2
4 4 4 3 2 2 1 1 0 -0 -1 -1 -1 -1 -1 -1 -1 -1 -0 0 0 0 0 1 2 2 2 2 1 -1 -2 -3 -2 -1 -0 -0 0 0 -0 -1 -2 -2 -1 1 1 1 -0 -1 -0 -0 0 0 -0 -0 -1 -1 -1 -1 -1 -0 0 0 -0 -1 -1 -1 -1 -1 -1
3 2 2 2 1 1 1 0 -0 -1 -1 -1 -1 -1 -1 -0 -0 -0 -0 0 1 1 2 2 2 2 2 1 -1 -2 -2 -2 -0 0 0 0 0 0 0 -0 -1 -1 -1 -0 1 1 1 0 0 0 0 0 -0 -1 -1 -1 -1 -1 -1 -1 -0 -0 -0 -1 -1 -1 -1 -0 0
1 1 1 1 1 1 0 -1 -1 -1 -1 -1 -1 -1 -0 -0 -0 -0 0 1 2 2 2 2 2 1 -0 -1 -2 -2 -1 0 1 1 1 1 0 1 1 1 -0 -1 -1 -0 1 1 1 1 0 0 -0 -0 -1 -1 -1 -1 -1 -1 -1 -1 -1 -1 -1 -1 -0 -0 -0 -1 -0
Height
3057 3059 3060 3061 3062 3063 3064 3065 3066 3067 3068 3069 3070 3072 3072 3073 3074 3075 3076 3076 3077 3078 3079 3080 3080 3081 3082 3082 3083 3083 3083 3084 3084 3084 3084 3084 3084 3084 3084 3084 3083 3083 3082 3082 3081 3081 3080 3080 3079 3079 3078 3077 3076 3075 3074 3073 3072 3070 3069 3068 3067 3065 3064 3062 3061 3059 3058 3056 3055
3055 3057 3058 3059 3060 3061 3062 3063 3064 3065 3066 3068 3069 3070 3071 3072 3072 3073 3075 3076 3077 3077 3078 3078 3079 3080 3080 3081 3081 3082 3082 3082 3082 3082 3083 3083 3083 3082 3082 3082 3082 3081 3081 3080 3080 3080 3079 3078 3078 3077 3076 3075 3074 3073 3072 3071 3070 3068 3067 3066 3064 3063 3061 3060 3058 3057 3055 3054 3052
3054 3055 3056 3057 3058 3059 3060 3061 3062 3064 3065 3066 3068 3069 3069 3070 3070 3072 3074 3075 3076 3076 3076 3077 3078 3078 3079 3080 3080 3080 3081 3081 3081 3081 3081 3081 3081 3081 3081 3081 3080 3080 3079 3079 3078 3078 3077 3076 3076 3075 3074 3073 3072 3071 3070 3069 3068 3066 3065 3063 3062 3060 3059 3057 3056 3054 3053 3051 3050
3052 3053 3054 3055 3056 3057 3059 3060 3061 3062 3064 3065 3066 3067 3067 3068 3069 3071 3072 3074 3074 3075 3075 3076 3077 3077 3078 3078 3079 3079 3080 3080 3080 3080 3080 3080 3080 3080 3080 3079 3079 3078 3078 3077 3077 3076 3075 3075 3074 3073 3072 3071 3070 3069 3068 3066 3065 3064 3063 3061 3059 3058 3056 3055 3053 3051 3050 3049 3047
3050 3052 3053 3054 3055 3056 3057 3059 3060 3061 3062 3063 3064 3064 3065 3067 3069 3070 3071 3072 3073 3073 3074 3075 3075 3076 3076 3077 3078 3078 3078 3078 3078 3078 3078 3078 3078 3078 3078 3078 3077 3077 3076 3075 3075 3074 3074 3073 3072 3071 3070 3069 3068 3067 3065 3064 3063 3061 3060 3059 3057 3055 3054 3052 3050 3049 3048 3046 3045
3049 3050 3051 3052 3054 3055 3056 3057 3059 3060 3061 3061 3061 3062 3064 3066 3067 3069 3070 3071 3071 3072 3073 3074 3074 3075 3075 3076 3076 3076 3077 3077 3077 3077 3077 3077 3077 3077 3076 3076 3075 3075 3075 3074 3073 3072 3072 3071 3070 3069 3068 3067 3066 3064 3063 3061 3060 3059 3057 3056 3054 3053 3051 3050 3048 3046 3045 3044 3042
3048 3049 3050 3051 3052 3053 3055 3056 3057 3058 3059 3059 3060 3062 3064 3065 3066 3067 3068 3069 3070 3071 3072 3072 3073 3074 3074 3075 3075 3075 3075 3075 3075 3075 3075 3075 3075 3075 3075 3075 3074 3073 3073 3072 3071 3070 3070 3069 3068 3067 3066 3065 3063 3062 3060 3059 3058 3056 3055 3053 3051 3050 3049 3047 3045 3044 3043 3041 3040
3046 3047 3048 3050 3051 3052 3053 3055 3056 3057 3057 3059 3060 3062 3063 3064 3065 3066 3067 3068 3069 3070 3070 3071 3072 3072 3073 3073 3073 3074 3074 3074 3074 3074 3074 3074 3074 3074 3073 3073 3072 3072 3071 3070 3070 3069 3068 3067 3066 3065 3064 3063 3061 3060 3058 3057 3055 3054 3052 3050 3049 3047 3046 3044 3043 3041 3040 3039 3037
3045 3046 3047 3048 3050 3050 3052 3053 3055 3056 3057 3058 3060 3061 3062 3063 3064 3065 3066 3067 3068 3069 3070 3070 3070 3071 3071 3072 3072 3072 3072 3072 3073 3073 3073 3073 3072 3072 3072 3071 3070 3070 3069 3068 3067 3067 3066 3065 3064 3063 3061 3060 3059 3057 3056 3054 3053 3051 3049 3048 3046 3045 3043 3041 3040 3039 3037 3036 3035
3043 3044 3045 3047 3048 3049 3050 3052 3054 3055 3056 3057 3059 3060 3061 3062 3063 3064 3065 3066 3067 3067 3068 3069 3069 3070 3070 3070 3070 3071 3071 3071 3071 3071 3071 3071 3071 3070 3070 3069 3069 3068 3067 3066 3065 3065 3064 3063 3062 3060 3059 3058 3056 3055 3053 3052 3050 3048 3047 3045 3044 3042 3040 3039 3037 3036 3035 3033 3032
3041 3043 3044 3045 3047 3048 3050 3051 3052 3054 3055 3056 3058 3059 3060 3061 3062 3063 3064 3065 3065 3066 3067 3067 3068 3068 3069 3069 3069 3069 3070 3070 3070 3070 3070 3069 3069 3069 3068 3067 3067 3066 3065 3065 3064 3063 3062 3061 3060 3058 3057 3055 3054 3052 3051 3049 3048 3046 3045 3043 3041 3040 3038 3036 3035 3033 3032 3030 3029
3040 3041 3043 3044 3045 3047 3048 3050 3051 3053 3054 3055 3057 3058 3059 3060 3060 3061 3062 3063 3064 3065 3065 3066 3066 3067 3067 3068 3068 3068 3068 3068 3068 3068 3068 3068 3067 3067 3066 3065 3065 3064 3063 3062 3061 3060 3060 3059 3057 3056 3054 3053 3051 3050 3048 3047 3045 3044 3042 3040 3039 3037 3035 3034 3032 3030 3029 3028 3026
3039 3040 3041 3043 3044 3046 3047 3049 3050 3052 3053 3054 3055 3056 3057 3059 3060 3060 3061 3062 3063 3063 3064 3065 3065 3065 3066 3066 3066 3066 3067 3067 3067 3066 3066 3066 3065 3065 3064 3064 3063 3062 3061 3060 3060 3059 3057 3056 3055 3053 3051 3050 3049 3047 3045 3044 3043 3041 3040 3038 3036 3035 3033 3031 3030 3028 3026 3025 3023
3037 3039 3040 3042 3043 3045 3046 3048 3050 3051 3052 3053 3054 3055 3056 3057 3058 3059 3060 3061 3061 3062 3063 3063 3064 3064 3065 3065 3065 3065 3065 3065 3065 3065 3065 3064 3064 3063 3063 3062 3061 3060 3060 3058 3057 3056 3055 3054 3052 3050 3049 3047 3046 3045 3043 3042 3040 3039 3037 3035 3034 3032 3030 3029 3027 3025 3024 3022 3021
3036 3038 3039 3040 3042 3044 3045 3047 3049 3050 3051 3052 3053 3054 3055 3056 3057 3058 3059 3060 3060 3061 3061 3062 3062 3063 3063 3063 3063 3064 3064 3064 3063 3063 3063 3062 3062 3061 3061 3060 3059 3058 3057 3056 3055 3054 3053 3051 3050 3048 3046 3045 3044 3042 3040 3039 3037 3036 3034 3033 3031 3030 3028 3026 3025 3023 3021 3020 3018
3035 3036 3038 3040 3041 3043 3045 3046 3047 3049 3050 3051 3052 3053 3054 3055 3056 3057 3058 3059 3059 3060 3060 3060 3061 3061 3061 3062 3062 3062 3062 3062 3062 3061 3061 3060 3060 3059 3059 3058 3057 3056 3055 3054 3053 3051 3050 3048 3047 3045 3044 3043 3041 3040 3038 3036 3035 3033 3032 3030 3029 3027 3026 3024 3022 3021 3019 3017 3016
3034 3035 3037 3039 3040 3042 3044 3045 3046 3048 3049 3050 3051 3052 3053 3054 3055 3056 3057 3057 3058 3059 3059 3059 3060 3060 3060 3060 3060 3060 3060 3060 3060 3060 3059 3059 3058 3057 3057 3056 3055 3054 3053 3052 3050 3049 3047 3046 3044 3043 3042 3040 3039 3037 3036 3034 3032 3031 3029 3028 3026 3025 3023 3022 3020 3018 3017 3015 3013
3033 3035 3036 3038 3040 3041 3043 3044 3045 3046 3048 3049 3050 3051 3052 3053 3054 3055 3055 3056 3057 3057 3057 3058 3058 3059 3059 3059 3059 3059 3059 3058 3058 3058 3057 3057 3056 3055 3055 3054 3053 3052 3050 3049 3048 3046 3045 3043 3042 3040 3039 3038 3036 3035 3033 3032 3030 3029 3027 3025 3024 3022 3021 3019 3018 3016 3014 3013 3011
3032 3034 3035 3037 3039 3040 3042 3043 3044 3045 3047 3048 3049 3050 3051 3052 3053 3054 3054 3055 3055 3056 3056 3057 3057 3057 3057 3057 3057 3057 3057 3056 3056 3056 3055 3055 3054 3053 3053 3051 3050 3049 3048 3046 3045 3044 3042 3041 3040 3038 3037 3035 3034 3032 3031 3029 3028 3026 3025 3023 3021 3020 3018 3017 3015 3014 3012 3010 3008
3031 3033 3035 3037 3038 3039 3041 3042 3043 3045 3045 3047 3048 3049 3050 3051 3052 3052 3053 3054 3054 3055 3055 3055 3055 3055 3055 3055 3055 3055 3055 3055 3054 3054 3053 3053 3052 3051 3050 3049 3048 3047 3045 3044 3042 3041 3040 3038 3037 3035 3034 3033 3031 3030 3028 3027 3025 3024 3022 3021 3019 3017 3016 3014 3013 3011 3009 3007 3005
3030 3032 3034 3036 3037 3039 3040 3041 3042 3044 3045 3046 3047 3048 3049 3050 3050 3051 3052 3052 3053 3053 3054 3054 3054 3054 3054 3054 3054 3053 3053 3053 3052 3052 3051 3051 3050 3049 3048 3047 3045 3044 3043 3041 3040 3038 3037 3035 3034 3033 3031 3030 3029 3027 3026 3025 3023 3022 3020 3019 3017 3015 3013 3011 3010 3008 3006 3004 3002
3030 3032 3033 3035 3036 3038 3039 3040 3041 3042 3044 3045 3046 3047 3047 3048 3049 3050 3050 3051 3052 3052 3052 3052 3052 3052 3052 3052 3052 3052 3051 3051 3050 3050 3049 3049 3048 3046 3045 3044 3043 3041 3040 3039 3037 3036 3035 3033 3032 3030 3029 3027 3026 3025 3023 3022 3021 3019 3018 3016 3015 3013 3011 3009 3007 3005 3003 3001 2999
3030 3031 3033 3034 3035 3037 3038 3039 3040 3041 3043 3044 3045 3045 3046 3047 3048 3049 3049 3050 3050 3050 3051 3051 3051 3050 3050 3050 3050 3050 3050 3049 3049 3048 3047 3046 3045 3044 3043 3041 3040 3039 3037 3036 3035 3033 3032 3030 3029 3028 3026 3025 3023 3022 3021 3019 3018 3016 3015 3014 3012 3010 3008 3006 3005 3002 3000 2998 2996
3029 3030 3032 3033 3035 3035 3037 3038 3039 3040 3041 3042 3043 3044 3045 3046 3047 3048 3048 3049 3049 3049 3049 3049 3049 3049 3049 3049 3049 3048 3048 3047 3047 3046 3045 3044 3043 3041 3040 3039 3038 3036 3035 3033 3032 3031 3029 3028 3027 3025 3024 3022 3021 3020 3018 3017 3015 3014 3012 3011 3009 3007 3006 3004 3002 3000 2998 2996 2994
3028 3030 3031 3032 3033 3035 3036 3037 3038 3039 3040 3041 3042 3043 3044 3045 3045 3046 3047 3047 3047 3047 3047 3047 3047 3047 3047 3047 3047 3046 3046 3045 3045 3044 3042 3041 3040 3039 3038 3036 3035 3034 3032 3031 3030 3028 3027 3025 3024 3023 3021 3020 3019 3017 3015 3014 3013 3011 3010 3008 3006 3005 3003 3001 2999 2997 2995 2993 2991
3027 3029 3030 3031 3032 3034 3035 3036 3037 3038 3040 3040 3041 3042 3043 3044 3044 3045 3045 3045 3045 3046 3046 3046 3046 3046 3045 3045 3045 3045 3044 3043 3042 3041 3040 3039 3038 3036 3035 3034 3032 3031 3030 3028 3027 3026 3025 3023 3022 3020 3019 3018 3016 3015 3013 3012 3010 3009 3007 3005 3004 3002 3000 2998 2996 2995 2993 2990 2988
3027 3028 3029 3030 3031 3033 3034 3035 3036 3037 3038 3039 3040 3041 3042 3042 3043 3043 3044 3044 3044 3044 3044 3044 3044 3044 3044 3044 3043 3042 3042 3041 3040 3039 3038 3036 3035 3034 3033 3031 3030 3029 3027 3026 3025 3024 3022 3021 3020 3018 3017 3015 3014 3013 3011 3010 3008 3006 3004 3002 3000 2999 2997 2995 2994 2992 2990 2988 2985
3026 3027 3028 3029 3030 3032 3033 3034 3035 3036 3037 3038 3039 3040 3040 3041 3041 3042 3042 3042 3043 3043 3043 3043 3042 3042 3042 3041 3041 3040 3040 3039 3037 3036 3035 3034 3033 3031 3030 3029 3028 3026 3025 3024 3022 3021 3020 3018 3017 3016 3014 3013 3011 3010 3008 3007 3005 3003 3001 3000 2998 2996 2994 2992 2990 2989 2987 2985 2982
3025 3026 3027 3028 3030 3031 3032 3033 3034 3035 3036 3037 3038 3039 3039 3040 3040 3040 3040 3041 3041 3041 3041 3041 3041 3040 3040 3039 3039 3038 3037 3036 3035 3034 3033 3031 3030 3029 3028 3026 3025 3024 3023 3021 3020 3019 3017 3016 3015 3013 3012 3010 3009 3007 3005 3004 3002 3000 2999 2997 2995 2993 2991 2989 2987 2985 2984 2982 2980
3024 3025 3026 3028 3029 3030 3031 3032 3033 3034 3035 3036 3037 3037 3038 3038 3039 3039 3039 3039 3039 3039 3039 3039 3039 3038 3038 3037 3036 3036 3035 3034 3033 3031 3030 3029 3028 3026 3025 3024 3023 3022 3020 3019 3018 3016 3015 3014 3012 3011 3009 3008 3006 3005 3003 3001 2999 2997 2995 2994 2992 2990 2988 2986 2985 2983 2981 2979 2976
3023 3024 3025 3027 3028 3029 3030 3031 3032 3033 3034 3035 3035 3036 3036 3037 3037 3037 3038 3038 3038 3038 3037 3037 3037 3036 3036 3035 3034 3034 3032 3031 3030 3029 3028 3027 3025 3024 3023 3022 3021 3019 3018 3016 3015 3014 3012 3011 3010 3008 3007 3005 3004 3002 3000 2998 2996 2995 2993 2991 2989 2987 2985 2984 2982 2980 2978 2976 2974
3022 3023 3025 3026 3027 3028 3029 3030 3031 3032 3033 3034 3034 3035 3035 3035 3036 3036 3036 3036 3036 3036 3035 3035 3035 3034 3034 3033 3032 3031 3030 3029 3028 3027 3025 3024 3023 3022 3021 3020 3019 3017 3016 3014 3013 3011 3010 3009 3007 3006 3004 3003 3001 2999 2997 2995 2994 2992 2990 2988 2986 2985 2983 2981 2979 2977 2975 2973 2970
3021 3022 3024 3025 3026 3027 3028 3029 3030 3031 3031 3032 3033 3033 3034 3034 3034 3034 3034 3034 3034 3034 3034 3033 3033 3032 3031 3031 3030 3029 3028 3027 3025 3024 3023 3022 3021 3020 3019 3017 3016 3015 3014 3012 3010 3009 3008 3006 3005 3003 3002 3000 2998 2996 2995 2993 2991 2989 2987 2985 2984 2982 2980 2978 2975 2974 2971 2969 2967
3020 3022 3023 3024 3025 3026 3027 3028 3029 3030 3030 3031 3031 3032 3032 3032 3032 3032 3032 3032 3032 3032 3032 3031 3030 3030 3029 3029 3028 3027 3025 3025 3023 3022 3021 3020 3019 3017 3016 3015 3014 3013 3011 3010 3008 3007 3005 3004 3002 3001 2999 2997 2995 2994 2992 2990 2988 2986 2985 2983 2981 2979 2977 2975 2973 2970 2969 2966 2964
3020 3021 3022 3023 3024 3025 3026 3027 3027 3028 3029 3030 3030 3030 3030 3031 3031 3031 3031 3030 3030 3030 3030 3029 3029 3028 3027 3026 3025 3025 3023 3022 3021 3020 3019 3018 3016 3015 3014 3013 3012 3010 3009 3007 3006 3004 3003 3001 3000 2998 2996 2995 2993 2991 2990 2988 2986 2984 2982 2980 2978 2976 2974 2972 2970 2967 2965 2963 2961
3019 3020 3021 3022 3023 3024 3025 3025 3026 3027 3028 3028 3029 3029 3029 3029 3029 3029 3029 3029 3029 3028 3028 3027 3026 3026 3025 3024 3023 3022 3021 3020 3019 3018 3016 3015 3014 3013 3012 3010 3010 3008 3007 3005 3004 3002 3000 2999 2997 2995 2994 2992 2990 2989 2987 2985 2983 2981 2979 2977 2975 2973 2971 2969 2967 2965 2962 2960 2958
3018 3019 3020 3021 3022 3023 3024 3025 3025 3026 3026 3027 3027 3027 3027 3028 3027 3027 3027 3027 3027 3026 3025 3025 3025 3024 3023 3022 3021 3020 3019 3018 3017 3015 3015 3014 3012 3011 3010 3008 3007 3006 3005 3003 3001 3000 2998 2996 2995 2993 2991 2990 2988 2986 2984 2982 2980 2978 2976 2974 2972 2970 2968 2966 2964 2961 2959 2957 2955
3017 3018 3019 3020 3021 3022 3023 3024 3024 3025 3025 3025 3026 3026 3026 3026 3026 3025 3025 3025 3025 3024 3024 3023 3022 3022 3021 3020 3019 3018 3016 3015 3015 3014 3013 3011 3010 3009 3007 3006 3004 3003 3002 3000 2999 2997 2995 2994 2992 2990 2989 2987 2985 2983 2981 2980 2977 2975 2974 2971 2970 2967 2965 2963 2961 2959 2956 2954 2952
3016 3017 3018 3019 3020 3021 3022 3022 3023 3024 3024 3024 3024 3024 3024 3024 3024 3024 3024 3023 3023 3022 3022 3021 3020 3019 3018 3017 3016 3015 3014 3013 3012 3011 3010 3009 3008 3006 3005 3004 3002 3000 2999 2998 2996 2995 2993 2991 2990 2988 2986 2985 2983 2981 2979 2977 2975 2973 2970 2969 2967 2965 2962 2960 2958 2956 2954 2951 2949
3015 3016 3018 3019 3020 3020 3021 3021 3022 3022 3023 3023 3023 3023 3023 3023 3022 3022 3022 3021 3021 3020 3020 3019 3018 3017 3016 3015 3014 3013 3012 3011 3010 3009 3008 3007 3005 3004 3003 3001 3000 2998 2997 2995 2994 2992 2991 2989 2987 2985 2984 2982 2980 2978 2976 2974 2972 2970 2968 2966 2964 2962 2960 2957 2955 2954 2951 2949 2947
3015 3016 3017 3018 3019 3020 3020 3020 3021 3021 3021 3021 3021 3021 3021 3021 3021 3020 3020 3020 3019 3019 3018 3017 3016 3015 3014 3013 3012 3011 3010 3009 3008 3007 3006 3005 3003 3002 3001 2999 2998 2996 2994 2993 2991 2990 2989 2987 2985 2983 2981 2979 2977 2975 2973 2971 2969 2967 2965 2963 2961 2959 2957 2955 2953 2951 2949 2947 2945